Date String (YYYY-MM-DD hh:mm:ss) UTC,Instrument flags,Ambient pressure (hPa),Sample flow (lpm),Bypass flow (lpm),Sample temperature (°C),Ambient temperature (°C),ASC tube jacket temperature (°C),LED temperature (°C),Box temperature (°C),Sample RH (%),Span deviation,Mass concentration (μg/m³),Mass concentration (μg/m³),Mass concentration (μg/m³)
DateTimeUTC,F1_M11,P_M11,Q1_M11,Q2_M11,T1_M11,T2_M11,T3_M11,T4_M11,T5_M11,U1_M11,ZSPAN_M11,X2_M11,X0_M11,X1_M11
2023-05-22 05:00:00,,0832.6,4.99,0.00,30.0,28.3,00.0,38.3,31.5,17.5,0003.3,0015.34,0022.66,0014.45
2023-05-22 05:01:00,,0832.6,5.01,0.00,30.0,28.3,00.0,38.3,31.5,17.5,0003.4,0015.34,0022.02,0014.45
2023-05-22 05:02:00,,0832.6,5.02,0.00,30.0,28.3,00.0,38.3,31.5,17.6,0003.4,0015.27,0021.02,0014.43
2023-05-22 05:03:00,,0832.6,4.98,0.00,30.0,28.3,00.0,38.3,31.5,17.8,0003.4,0015.22,0020.74,0014.42
2023-05-22 05:04:00,,0832.6,5.00,0.00,30.0,28.3,00.0,38.3,31.5,17.7,0003.4,0015.23,0020.99,0014.41
2023-05-22 05:05:00,,0832.6,5.00,0.00,30.0,28.3,00.0,38.3,31.5,17.6,0003.4,0015.24,0020.79,0014.41
2023-05-22 05:06:00,,0832.6,4.99,0.00,30.0,28.3,00.0,38.4,31.6,17.8,0003.3,0015.26,0020.67,0014.45
2023-05-22 05:07:00,,0832.6,5.01,0.00,30.0,28.4,00.0,38.4,31.6,17.9,0003.2,0015.37,0021.22,0014.49
2023-05-22 05:08:00,,0832.6,5.00,0.00,30.0,28.4,00.0,38.4,31.6,18.0,0003.3,0015.40,0021.85,0014.51
2023-05-22 05:09:00,,0832.6,5.00,0.00,30.0,28.4,00.0,38.4,31.6,17.8,0003.2,0015.41,0022.32,0014.52
2023-05-22 05:10:00,,0832.6,4.99,0.00,30.0,28.4,00.0,38.4,31.6,17.8,0003.4,0015.48,0022.80,0014.55
2023-05-22 05:11:00,,0832.7,5.01,0.00,30.0,28.4,00.0,38.4,31.6,17.6,0003.4,0015.52,0022.81,0014.59
2023-05-22 05:12:00,,0832.7,5.00,0.00,30.0,28.4,00.0,38.4,31.6,17.5,0003.3,0015.55,0022.99,0014.61
2023-05-22 05:13:00,,0832.6,5.00,0.00,30.0,28.4,00.0,38.4,31.6,17.6,0003.5,0015.58,0023.09,0014.64
2023-05-22 05:14:00,,0832.6,5.01,0.00,30.0,28.4,00.0,38.4,31.6,17.7,0003.5,0015.60,0023.49,0014.67
2023-05-22 05:15:00,,0832.6,4.98,0.00,30.0,28.4,00.0,38.4,31.6,17.6,0003.6,0015.64,0023.39,0014.70
2023-05-22 05:16:00,,0832.6,4.99,0.00,30.0,28.4,00.0,38.4,31.6,17.7,0003.7,0015.69,0023.17,0014.71
2023-05-22 05:17:00,,0832.6,5.00,0.00,30.0,28.3,00.0,38.4,31.6,17.6,0003.8,0015.66,0022.90,0014.71
2023-05-22 05:18:00,,0832.6,5.00,0.00,30.0,28.3,00.0,38.4,31.5,17.6,0003.8,0015.58,0022.34,0014.69
2023-05-22 05:19:00,,0832.6,5.00,0.00,30.0,28.3,00.0,38.4,31.6,17.6,0003.9,0015.58,0021.75,0014.69
2023-05-22 05:20:00,,0832.6,5.00,0.00,30.0,28.3,00.0,38.4,31.6,17.6,0003.8,0015.59,0021.32,0014.71
2023-05-22 05:21:00,,0832.6,5.01,0.00,30.0,28.3,00.0,38.4,31.6,17.6,0003.7,0015.55,0020.79,0014.71
2023-05-22 05:22:00,,0832.6,5.00,0.00,30.0,28.3,00.0,38.4,31.6,17.6,0003.6,0015.57,0021.86,0014.72
2023-05-22 05:23:00,,0832.6,5.01,0.00,30.0,28.3,00.0,38.4,31.5,17.6,0003.6,0015.56,0021.75,0014.71
2023-05-22 05:24:00,,0832.6,4.99,0.00,30.0,28.3,00.0,38.4,31.5,17.5,0003.5,0015.56,0021.78,0014.69
2023-05-22 05:25:00,,0832.6,5.00,0.00,30.0,28.3,00.0,38.4,31.5,17.6,0003.5,0015.57,0021.46,0014.67
2023-05-22 05:26:00,,0832.6,5.00,0.00,30.0,28.3,00.0,38.4,31.5,17.6,0003.4,0015.55,0021.54,0014.65
2023-05-22 05:27:00,,0832.6,5.00,0.00,30.0,28.3,00.0,38.4,31.6,17.7,0003.2,0015.55,0021.76,0014.66
2023-05-22 05:28:00,,0832.6,5.01,0.00,30.0,28.3,00.0,38.4,31.6,17.8,0003.1,0015.57,0022.61,0014.65
2023-05-22 05:29:00,,0832.6,5.00,0.00,30.0,28.3,00.0,38.4,31.5,17.6,0003.1,0015.55,0022.66,0014.62
2023-05-22 05:30:00,,0832.6,4.99,0.00,30.0,28.3,00.0,38.4,31.5,17.6,0003.0,0015.54,0022.72,0014.61
2023-05-22 05:31:00,,0832.6,4.99,0.00,30.0,28.3,00.0,38.4,31.5,17.8,0003.0,0015.51,0023.26,0014.60
2023-05-22 05:32:00,,0832.6,5.00,0.00,30.0,28.3,00.0,38.4,31.5,17.7,0003.1,0015.46,0023.15,0014.56
2023-05-22 05:33:00,,0832.6,5.00,0.00,30.0,28.3,00.0,38.4,31.5,17.8,0003.3,0015.43,0022.18,0014.54
2023-05-22 05:34:00,,0832.6,5.01,0.00,30.0,28.3,00.0,38.4,31.6,17.7,0003.4,0015.45,0022.06,0014.55
2023-05-22 05:35:00,,0832.6,5.00,0.00,30.0,28.3,00.0,38.4,31.5,17.7,0003.5,0015.42,0021.97,0014.55
2023-05-22 05:36:00,,0832.7,4.99,0.00,30.0,28.3,00.0,38.4,31.5,17.6,0003.5,0015.43,0021.96,0014.56
2023-05-22 05:37:00,,0832.6,4.99,0.00,30.0,28.3,00.0,38.4,31.5,17.7,0003.4,0015.44,0021.79,0014.57
2023-05-22 05:38:00,,0832.6,4.99,0.00,30.0,28.3,00.0,38.4,31.5,17.8,0003.5,0015.40,0021.47,0014.56
2023-05-22 05:39:00,,0832.7,5.01,0.00,30.0,28.3,00.0,38.4,31.5,17.8,0003.4,0015.42,0020.98,0014.58
2023-05-22 05:40:00,,0832.6,5.01,0.00,30.0,28.3,00.0,38.4,31.5,17.7,0003.4,0015.44,0021.00,0014.60
2023-05-22 05:41:00,,0832.7,4.99,0.00,30.0,28.3,00.0,38.4,31.5,17.7,0003.5,0015.42,0020.90,0014.61
2023-05-22 05:42:00,,0832.7,4.99,0.00,30.0,28.3,00.0,38.4,31.5,17.6,0003.5,0015.41,0020.28,0014.61
2023-05-22 05:43:00,,0832.6,5.01,0.00,30.0,28.3,00.0,38.4,31.5,17.6,0003.5,0015.47,0020.42,0014.64
2023-05-22 05:44:00,,0832.6,5.00,0.00,30.0,28.3,00.0,38.4,31.5,17.6,0003.3,0015.48,0020.48,0014.65
2023-05-22 05:45:00,,0832.6,5.00,0.00,30.0,28.3,00.0,38.4,31.5,17.6,0003.3,0015.51,0020.72,0014.66
2023-05-22 05:46:00,,0832.6,5.01,0.00,30.0,28.3,00.0,38.4,31.5,17.6,0003.3,0015.57,0020.90,0014.67
2023-05-22 05:47:00,,0832.7,5.00,0.00,30.0,28.3,00.0,38.4,31.5,17.7,0003.4,0015.59,0021.17,0014.68
2023-05-22 05:48:00,,0832.7,5.00,0.00,30.0,28.3,00.0,38.4,31.5,17.6,0003.4,0015.56,0021.38,0014.66
2023-05-22 05:49:00,,0832.7,5.01,0.00,30.0,28.3,00.0,38.4,31.5,17.8,0003.5,0015.57,0021.40,0014.67
2023-05-22 05:50:00,,0832.6,5.00,0.00,30.0,28.3,00.0,38.4,31.5,17.7,0003.5,0015.54,0021.14,0014.66
2023-05-22 05:51:00,,0832.6,5.00,0.00,30.0,28.3,00.0,38.4,31.5,17.7,0003.5,0015.55,0021.19,0014.67
2023-05-22 05:52:00,,0832.7,5.00,0.00,30.0,28.3,00.0,38.4,31.5,17.7,0003.5,0015.61,0021.51,0014.71
2023-05-22 05:53:00,,0832.6,5.00,0.00,30.0,28.3,00.0,38.4,31.5,17.6,0003.5,0015.63,0021.77,0014.74
2023-05-22 05:54:00,,0832.7,5.00,0.00,30.0,28.3,00.0,38.4,31.5,17.6,0003.6,0015.63,0021.74,0014.74
2023-05-22 05:55:00,,0832.6,5.00,0.00,30.0,28.3,00.0,38.4,31.5,17.5,0003.7,0015.59,0021.60,0014.74
2023-05-22 05:56:00,,0832.6,4.99,0.00,30.0,28.3,00.0,38.4,31.5,17.5,0003.6,0015.58,0021.48,0014.74
2023-05-22 05:57:00,,0832.6,5.01,0.00,30.0,28.3,00.0,38.4,31.5,17.5,0003.5,0015.56,0021.24,0014.75
2023-05-22 05:58:00,,0832.7,5.01,0.00,30.0,28.3,00.0,38.4,31.5,17.5,0003.5,0015.57,0020.96,0014.76
2023-05-22 05:59:00,,0832.7,4.99,0.00,30.0,28.3,00.0,38.4,31.5,17.5,0003.6,0015.61,0020.83,0014.78
